Time,TemperatureF,DewpointF,PressureIn,WindDirection,WindDirectionDegrees,WindSpeedMPH,WindSpeedGustMPH,Humidity,HourlyPrecipIn,Conditions,Clouds,dailyrainin,SoftwareType,DateUTC
2013-04-15 00:01:00,65.6,65.3,29.80,SW,235,0.0,0.0,99,0.00,,,0.00,Wunderground v.1.15,2013-04-15 05:01:00,
2013-04-15 00:07:00,64.8,64.2,29.80,NW,312,0.0,0.0,98,0.00,,,0.00,Wunderground v.1.15,2013-04-15 05:07:00,
2013-04-15 00:13:00,64.4,63.8,29.80,NW,312,0.0,0.0,98,0.00,,,0.00,Wunderground v.1.15,2013-04-15 05:13:00,
2013-04-15 00:18:00,64.3,64.0,29.80,NW,311,0.0,0.0,99,0.00,,,0.00,Wunderground v.1.15,2013-04-15 05:18:00,
2013-04-15 00:24:00,64.0,63.4,29.80,NW,312,0.0,0.0,98,0.00,,,0.00,Wunderground v.1.15,2013-04-15 05:24:00,
2013-04-15 00:29:00,64.1,63.8,29.80,North,354,0.0,0.0,99,0.00,,,0.00,Wunderground v.1.15,2013-04-15 05:29:00,
2013-04-15 00:35:00,64.4,64.1,29.81,North,356,0.0,0.0,99,0.00,,,0.00,Wunderground v.1.15,2013-04-15 05:35:00,
2013-04-15 00:40:00,64.1,63.8,29.80,North,356,0.0,0.0,99,0.00,,,0.00,Wunderground v.1.15,2013-04-15 05:40:00,
2013-04-15 00:46:00,64.1,63.8,29.81,North,355,0.0,0.0,99,0.00,,,0.00,Wunderground v.1.15,2013-04-15 05:46:00,
2013-04-15 00:52:00,64.6,64.3,29.81,NW,320,0.0,0.0,99,0.00,,,0.00,Wunderground v.1.15,2013-04-15 05:52:00,
2013-04-15 00:58:00,64.5,64.2,29.81,NW,320,0.0,0.0,99,0.00,,,0.00,Wunderground v.1.15,2013-04-15 05:58:00,
2013-04-15 01:04:00,64.7,64.4,29.81,WNW,301,0.0,0.0,99,0.00,,,0.00,Wunderground v.1.15,2013-04-15 06:04:00,
2013-04-15 01:10:00,65.6,65.6,29.81,SSW,208,1.0,1.0,100,0.00,,,0.00,Wunderground v.1.15,2013-04-15 06:10:00,
2013-04-15 01:15:00,66.3,66.3,29.81,SW,218,1.0,7.0,100,0.00,,,0.00,Wunderground v.1.15,2013-04-15 06:15:00,
2013-04-15 01:21:00,66.9,66.6,29.82,South,191,0.0,2.0,99,0.00,,,0.00,Wunderground v.1.15,2013-04-15 06:21:00,
2013-04-15 01:26:00,67.3,67.0,29.82,WSW,243,0.0,2.0,99,0.00,,,0.00,Wunderground v.1.15,2013-04-15 06:26:00,
2013-04-15 01:31:00,67.5,66.9,29.82,SW,229,4.0,4.0,98,0.00,,,0.00,Wunderground v.1.15,2013-04-15 06:31:00,
2013-04-15 01:37:00,67.7,66.8,29.82,SSE,163,2.0,4.0,97,0.00,,,0.00,Wunderground v.1.15,2013-04-15 06:37:00,
2013-04-15 01:42:00,67.9,67.0,29.82,SW,216,1.0,2.0,97,0.00,,,0.00,Wunderground v.1.15,2013-04-15 06:42:00,
2013-04-15 01:48:00,68.0,67.1,29.82,West,259,1.0,2.0,97,0.00,,,0.00,Wunderground v.1.15,2013-04-15 06:48:00,
2013-04-15 01:53:00,67.9,66.7,29.82,SW,224,2.0,6.0,96,0.00,,,0.00,Wunderground v.1.15,2013-04-15 06:53:00,
2013-04-15 01:59:00,68.0,66.8,29.82,SSW,198,2.0,6.0,96,0.00,,,0.00,Wunderground v.1.15,2013-04-15 06:59:00,
2013-04-15 02:04:00,68.2,66.7,29.82,SW,217,1.0,3.0,95,0.00,,,0.00,Wunderground v.1.15,2013-04-15 07:04:00,
2013-04-15 02:41:00,68.2,67.0,29.82,WSW,243,2.0,2.0,96,0.00,,,0.00,Wunderground v.1.15,2013-04-15 07:41:00,
2013-04-15 02:46:00,68.2,67.0,29.82,WSW,238,1.0,3.0,96,0.00,,,0.00,Wunderground v.1.15,2013-04-15 07:46:00,
2013-04-15 02:48:00,68.1,66.9,29.81,WSW,257,0.0,3.0,96,0.00,,,0.00,Wunderground v.1.15,2013-04-15 07:48:00,
2013-04-15 02:50:00,68.1,66.9,29.82,SW,230,1.0,1.0,96,0.00,,,0.00,Wunderground v.1.15,2013-04-15 07:50:00,
2013-04-15 02:55:00,68.0,66.8,29.82,SSW,210,1.0,2.0,96,0.00,,,0.00,Wunderground v.1.15,2013-04-15 07:55:00,
2013-04-15 03:01:00,68.1,66.9,29.82,West,260,0.0,2.0,96,0.00,,,0.00,Wunderground v.1.15,2013-04-15 08:01:00,
2013-04-15 03:06:00,68.0,66.5,29.81,West,266,0.0,2.0,95,0.00,,,0.00,Wunderground v.1.15,2013-04-15 08:06:00,
2013-04-15 03:11:00,67.9,66.4,29.82,SW,232,1.0,2.0,95,0.00,,,0.00,Wunderground v.1.15,2013-04-15 08:11:00,
2013-04-15 03:16:00,67.9,66.4,29.82,WSW,255,0.0,3.0,95,0.00,,,0.00,Wunderground v.1.15,2013-04-15 08:16:00,
2013-04-15 03:21:00,67.9,66.4,29.82,WSW,244,0.0,1.0,95,0.00,,,0.00,Wunderground v.1.15,2013-04-15 08:21:00,
2013-04-15 03:26:00,67.9,66.4,29.82,WSW,255,2.0,2.0,95,0.00,,,0.00,Wunderground v.1.15,2013-04-15 08:26:00,
2013-04-15 03:32:00,67.9,66.4,29.82,West,266,1.0,2.0,95,0.00,,,0.00,Wunderground v.1.15,2013-04-15 08:32:00,
2013-04-15 03:35:00,67.9,66.4,29.82,West,274,1.0,3.0,95,0.00,,,0.00,Wunderground v.1.15,2013-04-15 08:35:00,
2013-04-15 03:40:00,67.8,66.3,29.82,WSW,256,1.0,1.0,95,0.00,,,0.00,Wunderground v.1.15,2013-04-15 08:40:00,
2013-04-15 03:45:00,67.7,66.2,29.82,WSW,256,0.0,1.0,95,0.00,,,0.00,Wunderground v.1.15,2013-04-15 08:45:00,
2013-04-15 03:50:00,67.5,66.0,29.82,WSW,256,1.0,1.0,95,0.00,,,0.00,Wunderground v.1.15,2013-04-15 08:50:00,
2013-04-15 03:55:00,67.5,66.3,29.82,West,259,0.0,3.0,96,0.00,,,0.00,Wunderground v.1.15,2013-04-15 08:55:00,
2013-04-15 04:00:00,67.3,66.1,29.82,West,259,0.0,1.0,96,0.00,,,0.00,Wunderground v.1.15,2013-04-15 09:00:00,
2013-04-15 04:05:00,67.1,65.9,29.82,West,259,0.0,1.0,96,0.00,,,0.00,Wunderground v.1.15,2013-04-15 09:05:00,
2013-04-15 04:10:00,66.9,65.7,29.83,West,260,0.0,0.0,96,0.00,,,0.00,Wunderground v.1.15,2013-04-15 09:10:00,
2013-04-15 04:15:00,66.6,65.4,29.83,West,259,0.0,0.0,96,0.00,,,0.00,Wunderground v.1.15,2013-04-15 09:15:00,
2013-04-15 04:20:00,66.4,65.5,29.83,West,259,0.0,0.0,97,0.00,,,0.00,Wunderground v.1.15,2013-04-15 09:20:00,
2013-04-15 04:25:00,66.2,65.3,29.83,West,260,0.0,0.0,97,0.00,,,0.00,Wunderground v.1.15,2013-04-15 09:25:00,
2013-04-15 04:30:00,66.0,65.1,29.83,West,260,0.0,0.0,97,0.00,,,0.00,Wunderground v.1.15,2013-04-15 09:30:00,
2013-04-15 04:35:00,65.9,65.0,29.83,West,260,0.0,0.0,97,0.00,,,0.00,Wunderground v.1.15,2013-04-15 09:35:00,
2013-04-15 04:40:00,66.0,65.4,29.84,West,259,0.0,0.0,98,0.00,,,0.00,Wunderground v.1.15,2013-04-15 09:40:00,
2013-04-15 04:45:00,66.1,65.5,29.84,West,259,0.0,0.0,98,0.00,,,0.00,Wunderground v.1.15,2013-04-15 09:45:00,
2013-04-15 04:50:00,66.2,65.6,29.84,West,259,0.0,0.0,98,0.00,,,0.00,Wunderground v.1.15,2013-04-15 09:50:00,
2013-04-15 04:55:00,66.1,65.5,29.84,West,259,0.0,0.0,98,0.00,,,0.00,Wunderground v.1.15,2013-04-15 09:55:00,
2013-04-15 05:00:00,66.2,65.6,29.84,WSW,258,0.0,0.0,98,0.00,,,0.00,Wunderground v.1.15,2013-04-15 10:00:00,
2013-04-15 05:05:00,66.4,65.8,29.84,East,100,0.0,0.0,98,0.00,,,0.00,Wunderground v.1.15,2013-04-15 10:05:00,
2013-04-15 05:10:00,66.1,65.2,29.84,North,356,0.0,0.0,97,0.00,,,0.00,Wunderground v.1.15,2013-04-15 10:10:00,
2013-04-15 05:16:00,66.1,65.5,29.85,North,356,0.0,0.0,98,0.00,,,0.00,Wunderground v.1.15,2013-04-15 10:16:00,
2013-04-15 05:21:00,66.4,65.8,29.85,North,356,0.0,0.0,98,0.00,,,0.00,Wunderground v.1.15,2013-04-15 10:21:00,
2013-04-15 05:26:00,66.4,65.8,29.85,North,356,0.0,0.0,98,0.00,,,0.00,Wunderground v.1.15,2013-04-15 10:26:00,
2013-04-15 05:31:00,65.9,65.0,29.85,North,356,0.0,0.0,97,0.00,,,0.00,Wunderground v.1.15,2013-04-15 10:31:00,
2013-04-15 05:36:00,65.6,64.7,29.85,North,355,0.0,0.0,97,0.00,,,0.00,Wunderground v.1.15,2013-04-15 10:36:00,
2013-04-15 05:40:00,65.6,65.0,29.85,North,356,0.0,0.0,98,0.00,,,0.00,Wunderground v.1.15,2013-04-15 10:40:00,
2013-04-15 05:45:00,65.8,65.2,29.85,NNE,20,0.0,0.0,98,0.00,,,0.00,Wunderground v.1.15,2013-04-15 10:45:00,
2013-04-15 05:51:00,66.2,65.9,29.86,ESE,114,0.0,0.0,99,0.00,,,0.00,Wunderground v.1.15,2013-04-15 10:51:00,
2013-04-15 05:56:00,66.3,66.0,29.86,East,94,0.0,0.0,99,0.00,,,0.00,Wunderground v.1.15,2013-04-15 10:56:00,
2013-04-15 06:01:00,66.5,65.9,29.86,ESE,117,1.0,1.0,98,0.00,,,0.00,Wunderground v.1.15,2013-04-15 11:01:00,
2013-04-15 06:06:00,66.5,65.9,29.86,ESE,120,0.0,1.0,98,0.00,,,0.00,Wunderground v.1.15,2013-04-15 11:06:00,
2013-04-15 06:12:00,66.7,66.1,29.86,ESE,122,0.0,0.0,98,0.00,,,0.00,Wunderground v.1.15,2013-04-15 11:12:00,
2013-04-15 06:17:00,67.0,66.4,29.87,ESE,122,0.0,0.0,98,0.00,,,0.00,Wunderground v.1.15,2013-04-15 11:17:00,
2013-04-15 06:22:00,67.0,66.4,29.87,ESE,114,0.0,0.0,98,0.00,,,0.00,Wunderground v.1.15,2013-04-15 11:22:00,
2013-04-15 06:27:00,67.2,66.6,29.87,SE,135,0.0,0.0,98,0.00,,,0.00,Wunderground v.1.15,2013-04-15 11:27:00,
2013-04-15 06:32:00,67.2,66.6,29.87,SSE,155,0.0,0.0,98,0.00,,,0.00,Wunderground v.1.15,2013-04-15 11:32:00,
2013-04-15 06:37:00,67.4,66.8,29.87,SE,128,0.0,0.0,98,0.00,,,0.00,Wunderground v.1.15,2013-04-15 11:37:00,
2013-04-15 06:42:00,67.4,66.8,29.88,SE,128,0.0,0.0,98,0.00,,,0.00,Wunderground v.1.15,2013-04-15 11:42:00,
2013-04-15 06:47:00,67.3,66.7,29.88,SE,129,0.0,0.0,98,0.00,,,0.00,Wunderground v.1.15,2013-04-15 11:47:00,
2013-04-15 06:52:00,67.2,66.6,29.88,SE,129,0.0,0.0,98,0.00,,,0.00,Wunderground v.1.15,2013-04-15 11:52:00,
2013-04-15 06:57:00,67.1,66.5,29.89,SE,128,0.0,0.0,98,0.00,,,0.00,Wunderground v.1.15,2013-04-15 11:57:00,
2013-04-15 07:02:00,67.3,66.7,29.89,SSE,148,0.0,0.0,98,0.00,,,0.00,Wunderground v.1.15,2013-04-15 12:02:00,
2013-04-15 07:07:00,67.6,67.0,29.89,ESE,119,2.0,4.0,98,0.00,,,0.00,Wunderground v.1.15,2013-04-15 12:07:00,
2013-04-15 07:12:00,67.9,67.0,29.89,SE,135,3.0,4.0,97,0.00,,,0.00,Wunderground v.1.15,2013-04-15 12:12:00,
2013-04-15 07:17:00,68.1,67.2,29.89,SSE,168,2.0,4.0,97,0.00,,,0.00,Wunderground v.1.15,2013-04-15 12:17:00,
2013-04-15 07:23:00,68.3,67.1,29.89,ESE,122,1.0,3.0,96,0.00,,,0.00,Wunderground v.1.15,2013-04-15 12:23:00,
2013-04-15 07:28:00,68.5,67.3,29.90,SE,138,1.0,3.0,96,0.00,,,0.00,Wunderground v.1.15,2013-04-15 12:28:00,
2013-04-15 07:33:00,68.6,67.4,29.89,SSE,158,5.0,5.0,96,0.00,,,0.00,Wunderground v.1.15,2013-04-15 12:33:00,
2013-04-15 07:38:00,68.8,67.3,29.90,SSE,150,1.0,5.0,95,0.00,,,0.00,Wunderground v.1.15,2013-04-15 12:38:00,
2013-04-15 07:43:00,69.0,67.5,29.90,SSE,158,3.0,4.0,95,0.00,,,0.00,Wunderground v.1.15,2013-04-15 12:43:00,
2013-04-15 07:48:00,69.2,67.7,29.90,ESE,107,3.0,4.0,95,0.00,,,0.00,Wunderground v.1.15,2013-04-15 12:48:00,
2013-04-15 07:53:00,69.5,68.0,29.90,SSE,152,2.0,6.0,95,0.00,,,0.00,Wunderground v.1.15,2013-04-15 12:53:00,
2013-04-15 07:58:00,70.1,68.6,29.90,SE,129,2.0,6.0,95,0.00,,,0.00,Wunderground v.1.15,2013-04-15 12:58:00,
2013-04-15 08:04:00,70.9,68.8,29.90,SE,136,1.0,3.0,93,0.00,,,0.00,Wunderground v.1.15,2013-04-15 13:04:00,
2013-04-15 08:09:00,71.4,69.0,29.90,SSE,149,4.0,4.0,92,0.00,,,0.00,Wunderground v.1.15,2013-04-15 13:09:00,
2013-04-15 08:14:00,71.4,69.0,29.90,ESE,110,3.0,4.0,92,0.00,,,0.00,Wunderground v.1.15,2013-04-15 13:14:00,
2013-04-15 08:19:00,71.1,68.7,29.90,SE,128,1.0,5.0,92,0.00,,,0.00,Wunderground v.1.15,2013-04-15 13:19:00,
2013-04-15 08:24:00,71.0,68.9,29.90,SE,138,1.0,3.0,93,0.00,,,0.00,Wunderground v.1.15,2013-04-15 13:24:00,
2013-04-15 08:29:00,70.8,69.0,29.91,ESE,117,3.0,4.0,94,0.00,,,0.00,Wunderground v.1.15,2013-04-15 13:29:00,
2013-04-15 08:34:00,70.4,68.6,29.91,SSE,148,2.0,3.0,94,0.00,,,0.00,Wunderground v.1.15,2013-04-15 13:34:00,
2013-04-15 08:39:00,70.4,68.9,29.91,ESE,120,2.0,3.0,95,0.00,,,0.00,Wunderground v.1.15,2013-04-15 13:39:00,
2013-04-15 08:44:00,70.4,68.9,29.91,SSE,152,2.0,3.0,95,0.00,,,0.00,Wunderground v.1.15,2013-04-15 13:44:00,
2013-04-15 08:49:00,70.3,68.8,29.91,SE,146,2.0,4.0,95,0.00,,,0.00,Wunderground v.1.15,2013-04-15 13:49:00,
2013-04-15 08:54:00,70.4,68.9,29.91,SE,145,2.0,4.0,95,0.00,,,0.00,Wunderground v.1.15,2013-04-15 13:54:00,
2013-04-15 08:59:00,70.4,68.9,29.91,SE,136,2.0,5.0,95,0.00,,,0.00,Wunderground v.1.15,2013-04-15 13:59:00,
2013-04-15 09:04:00,70.4,69.2,29.92,ESE,104,4.0,4.0,96,0.00,,,0.00,Wunderground v.1.15,2013-04-15 14:04:00,
2013-04-15 09:09:00,70.2,69.0,29.92,ESE,104,3.0,5.0,96,0.00,,,0.00,Wunderground v.1.15,2013-04-15 14:09:00,
2013-04-15 09:15:00,70.3,69.1,29.92,SSE,152,1.0,4.0,96,0.00,,,0.00,Wunderground v.1.15,2013-04-15 14:15:00,
2013-04-15 09:20:00,70.5,69.3,29.92,ESE,120,3.0,4.0,96,0.00,,,0.00,Wunderground v.1.15,2013-04-15 14:20:00,
2013-04-15 09:25:00,70.6,69.4,29.92,ESE,106,5.0,5.0,96,0.00,,,0.00,Wunderground v.1.15,2013-04-15 14:25:00,
2013-04-15 09:30:00,70.5,69.0,29.92,ESE,104,6.0,6.0,95,0.00,,,0.00,Wunderground v.1.15,2013-04-15 14:30:00,
2013-04-15 09:35:00,70.4,69.2,29.93,ESE,104,5.0,7.0,96,0.00,,,0.00,Wunderground v.1.15,2013-04-15 14:35:00,
2013-04-15 09:40:00,70.3,69.1,29.93,ESE,104,4.0,4.0,96,0.00,,,0.00,Wunderground v.1.15,2013-04-15 14:40:00,
2013-04-15 09:45:00,70.2,69.3,29.93,East,100,4.0,6.0,97,0.00,,,0.00,Wunderground v.1.15,2013-04-15 14:45:00,
2013-04-15 09:50:00,70.3,69.4,29.93,ESE,108,2.0,4.0,97,0.00,,,0.00,Wunderground v.1.15,2013-04-15 14:50:00,
2013-04-15 09:55:00,70.3,69.4,29.93,ESE,110,2.0,5.0,97,0.00,,,0.00,Wunderground v.1.15,2013-04-15 14:55:00,
2013-04-15 10:01:00,70.3,69.4,29.93,ESE,104,4.0,4.0,97,0.00,,,0.00,Wunderground v.1.15,2013-04-15 15:01:00,
2013-04-15 10:06:00,70.3,69.7,29.93,SE,127,4.0,5.0,98,0.00,,,0.00,Wunderground v.1.15,2013-04-15 15:06:00,
2013-04-15 10:11:00,70.2,69.6,29.93,East,89,4.0,9.0,98,0.00,,,0.00,Wunderground v.1.15,2013-04-15 15:11:00,
2013-04-15 10:16:00,70.2,69.6,29.93,East,96,8.0,9.0,98,0.00,,,0.00,Wunderground v.1.15,2013-04-15 15:16:00,
2013-04-15 10:21:00,70.1,69.5,29.93,East,100,6.0,6.0,98,0.00,,,0.00,Wunderground v.1.15,2013-04-15 15:21:00,
2013-04-15 10:26:00,70.1,69.8,29.94,East,89,5.0,7.0,99,0.00,,,0.00,Wunderground v.1.15,2013-04-15 15:26:00,
2013-04-15 10:31:00,70.1,69.8,29.94,East,85,6.0,6.0,99,0.00,,,0.00,Wunderground v.1.15,2013-04-15 15:31:00,
2013-04-15 10:37:00,70.2,69.9,29.94,East,88,4.0,6.0,99,0.00,,,0.00,Wunderground v.1.15,2013-04-15 15:37:00,
2013-04-15 10:42:00,70.0,69.7,29.94,East,84,5.0,7.0,99,0.00,,,0.00,Wunderground v.1.15,2013-04-15 15:42:00,
2013-04-15 10:47:00,70.0,69.7,29.94,East,94,5.0,8.0,99,0.00,,,0.00,Wunderground v.1.15,2013-04-15 15:47:00,
2013-04-15 10:52:00,70.0,69.7,29.94,SE,126,3.0,8.0,99,0.00,,,0.00,Wunderground v.1.15,2013-04-15 15:52:00,
2013-04-15 10:57:00,70.0,69.7,29.94,East,98,8.0,8.0,99,0.00,,,0.00,Wunderground v.1.15,2013-04-15 15:57:00,
2013-04-15 11:02:00,70.0,69.7,29.94,East,98,2.0,5.0,99,0.00,,,0.00,Wunderground v.1.15,2013-04-15 16:02:00,
2013-04-15 11:07:00,70.0,69.7,29.95,East,85,3.0,6.0,99,0.00,,,0.00,Wunderground v.1.15,2013-04-15 16:07:00,
2013-04-15 11:12:00,69.9,69.6,29.95,East,79,5.0,8.0,99,0.00,,,0.00,Wunderground v.1.15,2013-04-15 16:12:00,
2013-04-15 11:17:00,69.9,69.6,29.95,East,88,3.0,8.0,99,0.00,,,0.00,Wunderground v.1.15,2013-04-15 16:17:00,
2013-04-15 11:22:00,69.9,69.6,29.95,ENE,73,3.0,11.0,99,0.00,,,0.00,Wunderground v.1.15,2013-04-15 16:22:00,
2013-04-15 11:27:00,69.9,69.6,29.95,ESE,113,5.0,11.0,99,0.00,,,0.00,Wunderground v.1.15,2013-04-15 16:27:00,
2013-04-15 11:33:00,69.9,69.6,29.95,SE,146,3.0,6.0,99,0.00,,,0.00,Wunderground v.1.15,2013-04-15 16:33:00,
2013-04-15 11:38:00,70.0,70.0,29.95,East,86,3.0,6.0,100,0.00,,,0.00,Wunderground v.1.15,2013-04-15 16:38:00,
2013-04-15 11:43:00,70.0,70.0,29.95,East,79,7.0,8.0,100,0.00,,,0.00,Wunderground v.1.15,2013-04-15 16:43:00,
2013-04-15 11:48:00,69.9,69.9,29.95,East,89,5.0,8.0,100,0.00,,,0.00,Wunderground v.1.15,2013-04-15 16:48:00,
2013-04-15 11:53:00,70.1,70.1,29.95,SE,134,3.0,9.0,100,0.00,,,0.00,Wunderground v.1.15,2013-04-15 16:53:00,
2013-04-15 11:58:00,70.2,70.2,29.95,East,86,3.0,9.0,100,0.00,,,0.00,Wunderground v.1.15,2013-04-15 16:58:00,
2013-04-15 12:03:00,70.2,70.2,29.94,ESE,103,6.0,7.0,100,0.00,,,0.00,Wunderground v.1.15,2013-04-15 17:03:00,
2013-04-15 12:08:00,70.1,70.1,29.94,East,98,6.0,7.0,100,0.00,,,0.00,Wunderground v.1.15,2013-04-15 17:08:00,
2013-04-15 12:13:00,70.3,70.3,29.94,ESE,108,3.0,7.0,100,0.00,,,0.00,Wunderground v.1.15,2013-04-15 17:13:00,
2013-04-15 12:18:00,70.3,70.3,29.94,East,90,5.0,8.0,100,0.00,,,0.00,Wunderground v.1.15,2013-04-15 17:18:00,
2013-04-15 12:21:00,70.3,70.3,29.94,East,101,6.0,9.0,100,0.00,,,0.00,Wunderground v.1.15,2013-04-15 17:21:00,
2013-04-15 12:22:00,70.3,70.3,29.94,East,82,6.0,9.0,100,0.00,,,0.00,Wunderground v.1.15,2013-04-15 17:22:00,
2013-04-15 12:24:00,70.3,70.3,29.94,East,82,4.0,9.0,100,0.00,,,0.00,Wunderground v.1.15,2013-04-15 17:24:00,
2013-04-15 12:30:00,70.4,70.4,29.94,ENE,73,5.0,6.0,100,0.00,,,0.00,Wunderground v.1.15,2013-04-15 17:30:00,
2013-04-15 12:35:00,70.6,70.6,29.94,East,96,5.0,7.0,100,0.00,,,0.00,Wunderground v.1.15,2013-04-15 17:35:00,
2013-04-15 12:40:00,70.6,70.6,29.93,East,98,4.0,5.0,100,0.00,,,0.00,Wunderground v.1.15,2013-04-15 17:40:00,
2013-04-15 12:44:00,70.5,70.5,29.93,East,94,5.0,8.0,100,0.00,,,0.00,Wunderground v.1.15,2013-04-15 17:44:00,
2013-04-15 12:50:00,70.7,70.7,29.94,East,83,5.0,5.0,100,0.00,,,0.00,Wunderground v.1.15,2013-04-15 17:50:00,
2013-04-15 12:55:00,70.7,70.7,29.94,East,81,6.0,9.0,100,0.00,,,0.00,Wunderground v.1.15,2013-04-15 17:55:00,
2013-04-15 13:00:00,70.8,70.8,29.93,ESE,104,8.0,11.0,100,0.00,,,0.00,Wunderground v.1.15,2013-04-15 18:00:00,
2013-04-15 13:05:00,71.1,71.1,29.93,ENE,75,5.0,9.0,100,0.00,,,0.00,Wunderground v.1.15,2013-04-15 18:05:00,
2013-04-15 13:10:00,71.3,71.0,29.94,East,91,6.0,6.0,99,0.00,,,0.00,Wunderground v.1.15,2013-04-15 18:10:00,
2013-04-15 13:15:00,71.6,71.3,29.94,East,90,6.0,9.0,99,0.00,,,0.00,Wunderground v.1.15,2013-04-15 18:15:00,
2013-04-15 13:20:00,71.8,71.2,29.93,ESE,118,6.0,6.0,98,0.00,,,0.00,Wunderground v.1.15,2013-04-15 18:20:00,
2013-04-15 13:25:00,72.1,71.2,29.93,East,94,5.0,10.0,97,0.00,,,0.00,Wunderground v.1.15,2013-04-15 18:25:00,
2013-04-15 13:29:00,72.3,71.1,29.93,ENE,71,5.0,11.0,96,0.00,,,0.00,Wunderground v.1.15,2013-04-15 18:29:00,
2013-04-15 13:30:00,72.4,71.2,29.93,East,98,5.0,6.0,96,0.00,,,0.00,Wunderground v.1.15,2013-04-15 18:30:00,
2013-04-15 13:35:00,72.4,71.2,29.93,ESE,105,10.0,11.0,96,0.00,,,0.00,Wunderground v.1.15,2013-04-15 18:35:00,
2013-04-15 13:40:00,72.4,70.9,29.93,ENE,78,6.0,11.0,95,0.00,,,0.00,Wunderground v.1.15,2013-04-15 18:40:00,
2013-04-15 13:45:00,72.4,70.9,29.93,East,81,7.0,11.0,95,0.00,,,0.00,Wunderground v.1.15,2013-04-15 18:45:00,
2013-04-15 13:50:00,72.4,70.9,29.93,ENE,73,6.0,7.0,95,0.00,,,0.00,Wunderground v.1.15,2013-04-15 18:50:00,
2013-04-15 13:55:00,72.5,71.0,29.93,East,86,7.0,10.0,95,0.00,,,0.00,Wunderground v.1.15,2013-04-15 18:55:00,
2013-04-15 14:00:00,72.8,71.3,29.93,ESE,102,8.0,8.0,95,0.00,,,0.00,Wunderground v.1.15,2013-04-15 19:00:00,
2013-04-15 14:05:00,72.8,71.0,29.93,East,94,8.0,10.0,94,0.00,,,0.00,Wunderground v.1.15,2013-04-15 19:05:00,
2013-04-15 14:10:00,72.8,71.3,29.92,ENE,73,4.0,7.0,95,0.00,,,0.00,Wunderground v.1.15,2013-04-15 19:10:00,
2013-04-15 14:15:00,72.7,71.2,29.92,ESE,117,5.0,12.0,95,0.00,,,0.00,Wunderground v.1.15,2013-04-15 19:15:00,
2013-04-15 14:20:00,72.9,71.4,29.92,East,97,8.0,9.0,95,0.00,,,0.00,Wunderground v.1.15,2013-04-15 19:20:00,
2013-04-15 14:25:00,73.0,71.5,29.92,East,82,6.0,11.0,95,0.00,,,0.00,Wunderground v.1.15,2013-04-15 19:25:00,
2013-04-15 14:30:00,73.0,71.2,29.92,ESE,115,8.0,8.0,94,0.00,,,0.00,Wunderground v.1.15,2013-04-15 19:30:00,
2013-04-15 14:35:00,72.9,71.4,29.92,East,96,10.0,12.0,95,0.00,,,0.00,Wunderground v.1.15,2013-04-15 19:35:00,
2013-04-15 14:40:00,72.7,71.2,29.92,ESE,104,7.0,9.0,95,0.00,,,0.00,Wunderground v.1.15,2013-04-15 19:40:00,
2013-04-15 14:45:00,72.7,71.2,29.92,East,94,5.0,10.0,95,0.00,,,0.00,Wunderground v.1.15,2013-04-15 19:45:00,
2013-04-15 14:50:00,72.5,71.0,29.92,East,86,8.0,8.0,95,0.00,,,0.00,Wunderground v.1.15,2013-04-15 19:50:00,
2013-04-15 14:57:00,72.4,70.9,29.92,ESE,104,6.0,8.0,95,0.00,,,0.00,Wunderground v.1.15,2013-04-15 19:57:00,
2013-04-15 15:02:00,72.2,70.7,29.92,ESE,104,8.0,11.0,95,0.00,,,0.00,Wunderground v.1.15,2013-04-15 20:02:00,
2013-04-15 15:07:00,72.1,70.9,29.92,East,94,8.0,12.0,96,0.00,,,0.00,Wunderground v.1.15,2013-04-15 20:07:00,
2013-04-15 15:12:00,72.1,70.6,29.92,East,89,8.0,9.0,95,0.00,,,0.00,Wunderground v.1.15,2013-04-15 20:12:00,
2013-04-15 15:17:00,72.0,70.8,29.92,East,86,8.0,11.0,96,0.00,,,0.00,Wunderground v.1.15,2013-04-15 20:17:00,
2013-04-15 15:22:00,72.2,71.0,29.92,ESE,104,8.0,10.0,96,0.00,,,0.00,Wunderground v.1.15,2013-04-15 20:22:00,
2013-04-15 15:27:00,72.3,71.1,29.92,ESE,104,6.0,10.0,96,0.00,,,0.00,Wunderground v.1.15,2013-04-15 20:27:00,
2013-04-15 15:32:00,72.6,71.1,29.92,SE,128,7.0,10.0,95,0.00,,,0.00,Wunderground v.1.15,2013-04-15 20:32:00,
2013-04-15 15:37:00,72.5,71.0,29.92,East,79,4.0,11.0,95,0.00,,,0.00,Wunderground v.1.15,2013-04-15 20:37:00,
2013-04-15 15:42:00,72.5,71.0,29.92,East,79,7.0,10.0,95,0.00,,,0.00,Wunderground v.1.15,2013-04-15 20:42:00,
2013-04-15 15:47:00,72.4,70.9,29.91,East,94,7.0,11.0,95,0.00,,,0.00,Wunderground v.1.15,2013-04-15 20:47:00,
2013-04-15 15:52:00,72.4,70.9,29.91,ESE,115,6.0,11.0,95,0.00,,,0.00,Wunderground v.1.15,2013-04-15 20:52:00,
2013-04-15 15:57:00,72.3,70.8,29.91,SE,129,7.0,11.0,95,0.00,,,0.00,Wunderground v.1.15,2013-04-15 20:57:00,
2013-04-15 16:02:00,72.1,70.9,29.91,East,101,5.0,12.0,96,0.00,,,0.00,Wunderground v.1.15,2013-04-15 21:02:00,
2013-04-15 16:07:00,72.0,70.8,29.91,East,94,5.0,12.0,96,0.00,,,0.00,Wunderground v.1.15,2013-04-15 21:07:00,
2013-04-15 16:12:00,72.2,71.0,29.91,East,100,6.0,8.0,96,0.00,,,0.00,Wunderground v.1.15,2013-04-15 21:12:00,
2013-04-15 16:17:00,72.4,70.9,29.91,ESE,104,7.0,9.0,95,0.00,,,0.00,Wunderground v.1.15,2013-04-15 21:17:00,
2013-04-15 16:22:00,72.3,70.8,29.91,East,96,7.0,12.0,95,0.00,,,0.00,Wunderground v.1.15,2013-04-15 21:22:00,
2013-04-15 16:27:00,72.3,70.8,29.91,ESE,120,4.0,12.0,95,0.00,,,0.00,Wunderground v.1.15,2013-04-15 21:27:00,
2013-04-15 16:32:00,72.1,70.6,29.91,ENE,70,7.0,12.0,95,0.00,,,0.00,Wunderground v.1.15,2013-04-15 21:32:00,
2013-04-15 16:37:00,72.0,70.5,29.92,SE,138,4.0,12.0,95,0.00,,,0.00,Wunderground v.1.15,2013-04-15 21:37:00,
2013-04-15 16:42:00,71.9,70.4,29.91,ESE,120,9.0,11.0,95,0.00,,,0.00,Wunderground v.1.15,2013-04-15 21:42:00,
2013-04-15 16:47:00,72.0,70.5,29.92,SE,125,6.0,11.0,95,0.00,,,0.00,Wunderground v.1.15,2013-04-15 21:47:00,
2013-04-15 16:53:00,71.8,70.6,29.91,ESE,105,8.0,8.0,96,0.00,,,0.00,Wunderground v.1.15,2013-04-15 21:53:00,
2013-04-15 16:58:00,71.7,70.5,29.91,East,89,9.0,10.0,96,0.00,,,0.00,Wunderground v.1.15,2013-04-15 21:58:00,
2013-04-15 17:03:00,71.6,70.4,29.91,East,86,5.0,10.0,96,0.00,,,0.00,Wunderground v.1.15,2013-04-15 22:03:00,
2013-04-15 17:08:00,71.6,70.4,29.91,SE,132,8.0,11.0,96,0.00,,,0.00,Wunderground v.1.15,2013-04-15 22:08:00,
2013-04-15 17:13:00,71.6,70.4,29.92,East,85,8.0,13.0,96,0.00,,,0.00,Wunderground v.1.15,2013-04-15 22:13:00,
2013-04-15 17:18:00,71.5,70.3,29.92,ESE,110,8.0,13.0,96,0.00,,,0.00,Wunderground v.1.15,2013-04-15 22:18:00,
2013-04-15 17:23:00,71.4,70.2,29.92,ESE,102,10.0,13.0,96,0.00,,,0.00,Wunderground v.1.15,2013-04-15 22:23:00,
2013-04-15 17:28:00,71.3,70.1,29.92,East,101,9.0,13.0,96,0.00,,,0.00,Wunderground v.1.15,2013-04-15 22:28:00,
2013-04-15 17:33:00,71.2,70.0,29.92,ESE,108,7.0,14.0,96,0.00,,,0.00,Wunderground v.1.15,2013-04-15 22:33:00,
2013-04-15 17:38:00,71.1,69.9,29.92,East,90,9.0,14.0,96,0.00,,,0.00,Wunderground v.1.15,2013-04-15 22:38:00,
2013-04-15 17:43:00,71.1,69.9,29.92,SE,146,5.0,13.0,96,0.00,,,0.00,Wunderground v.1.15,2013-04-15 22:43:00,
2013-04-15 17:48:00,71.1,70.2,29.92,ESE,110,5.0,13.0,97,0.00,,,0.00,Wunderground v.1.15,2013-04-15 22:48:00,
2013-04-15 17:53:00,71.1,69.9,29.92,East,79,9.0,15.0,96,0.00,,,0.00,Wunderground v.1.15,2013-04-15 22:53:00,
2013-04-15 17:58:00,71.1,69.9,29.92,SE,130,8.0,15.0,96,0.00,,,0.00,Wunderground v.1.15,2013-04-15 22:58:00,
2013-04-15 18:03:00,71.1,69.9,29.92,East,89,9.0,10.0,96,0.00,,,0.00,Wunderground v.1.15,2013-04-15 23:03:00,
2013-04-15 18:08:00,71.1,69.9,29.92,ESE,111,12.0,13.0,96,0.00,,,0.00,Wunderground v.1.15,2013-04-15 23:08:00,
2013-04-15 18:13:00,71.0,70.1,29.92,ESE,104,5.0,11.0,97,0.00,,,0.00,Wunderground v.1.15,2013-04-15 23:13:00,
2013-04-15 18:18:00,70.9,70.0,29.92,ESE,122,6.0,11.0,97,0.00,,,0.00,Wunderground v.1.15,2013-04-15 23:18:00,
2013-04-15 18:23:00,70.9,70.0,29.92,East,90,8.0,10.0,97,0.00,,,0.00,Wunderground v.1.15,2013-04-15 23:23:00,
2013-04-15 18:28:00,70.9,70.0,29.92,ESE,107,8.0,11.0,97,0.00,,,0.00,Wunderground v.1.15,2013-04-15 23:28:00,
2013-04-15 18:33:00,71.0,70.1,29.92,East,101,6.0,10.0,97,0.00,,,0.00,Wunderground v.1.15,2013-04-15 23:33:00,
2013-04-15 18:38:00,71.0,70.1,29.92,ESE,116,9.0,11.0,97,0.00,,,0.00,Wunderground v.1.15,2013-04-15 23:38:00,
2013-04-15 18:43:00,71.1,69.9,29.92,ESE,110,4.0,10.0,96,0.00,,,0.00,Wunderground v.1.15,2013-04-15 23:43:00,
2013-04-15 18:48:00,71.1,69.9,29.92,East,101,7.0,11.0,96,0.00,,,0.00,Wunderground v.1.15,2013-04-15 23:48:00,
2013-04-15 18:53:00,71.1,69.9,29.92,ESE,122,4.0,10.0,96,0.00,,,0.00,Wunderground v.1.15,2013-04-15 23:53:00,
2013-04-15 18:58:00,71.1,69.9,29.92,ESE,113,10.0,13.0,96,0.00,,,0.00,Wunderground v.1.15,2013-04-15 23:58:00,
2013-04-15 19:03:00,71.1,69.9,29.92,SE,138,6.0,11.0,96,0.00,,,0.00,Wunderground v.1.15,2013-04-16 00:03:00,
2013-04-15 19:08:00,71.2,70.0,29.92,ESE,104,8.0,14.0,96,0.00,,,0.00,Wunderground v.1.15,2013-04-16 00:08:00,
2013-04-15 19:13:00,71.3,70.1,29.92,ESE,113,7.0,12.0,96,0.00,,,0.00,Wunderground v.1.15,2013-04-16 00:13:00,
2013-04-15 19:18:00,71.4,70.2,29.93,ESE,114,7.0,12.0,96,0.00,,,0.00,Wunderground v.1.15,2013-04-16 00:18:00,
2013-04-15 19:23:00,71.4,70.2,29.93,ESE,104,5.0,10.0,96,0.00,,,0.00,Wunderground v.1.15,2013-04-16 00:23:00,
2013-04-15 19:28:00,71.4,70.2,29.93,ESE,108,12.0,12.0,96,0.00,,,0.00,Wunderground v.1.15,2013-04-16 00:28:00,
2013-04-15 19:33:00,71.5,70.3,29.93,ESE,107,9.0,12.0,96,0.00,,,0.00,Wunderground v.1.15,2013-04-16 00:33:00,
2013-04-15 19:38:00,71.5,70.3,29.93,SE,142,5.0,12.0,96,0.00,,,0.00,Wunderground v.1.15,2013-04-16 00:38:00,
2013-04-15 19:43:00,71.5,70.3,29.93,SE,127,4.0,12.0,96,0.00,,,0.00,Wunderground v.1.15,2013-04-16 00:43:00,
2013-04-15 19:48:00,71.4,70.2,29.93,SE,125,6.0,14.0,96,0.00,,,0.00,Wunderground v.1.15,2013-04-16 00:48:00,
2013-04-15 19:53:00,71.4,70.2,29.93,ESE,120,9.0,11.0,96,0.00,,,0.00,Wunderground v.1.15,2013-04-16 00:53:00,
2013-04-15 19:58:00,71.4,70.2,29.94,East,96,6.0,12.0,96,0.00,,,0.00,Wunderground v.1.15,2013-04-16 00:58:00,
2013-04-15 20:03:00,71.4,70.2,29.94,SE,128,7.0,15.0,96,0.00,,,0.00,Wunderground v.1.15,2013-04-16 01:03:00,
2013-04-15 20:08:00,71.4,70.2,29.94,SE,131,6.0,15.0,96,0.00,,,0.00,Wunderground v.1.15,2013-04-16 01:08:00,
2013-04-15 20:13:00,71.4,70.2,29.94,ESE,122,8.0,12.0,96,0.00,,,0.00,Wunderground v.1.15,2013-04-16 01:13:00,
2013-04-15 20:18:00,71.4,70.2,29.94,ESE,110,7.0,13.0,96,0.00,,,0.00,Wunderground v.1.15,2013-04-16 01:18:00,
2013-04-15 20:23:00,71.3,70.4,29.94,SE,141,4.0,13.0,97,0.00,,,0.00,Wunderground v.1.15,2013-04-16 01:23:00,
2013-04-15 20:28:00,71.3,70.4,29.95,ESE,116,8.0,13.0,97,0.00,,,0.00,Wunderground v.1.15,2013-04-16 01:28:00,
2013-04-15 20:33:00,71.2,70.3,29.95,East,99,7.0,11.0,97,0.00,,,0.00,Wunderground v.1.15,2013-04-16 01:33:00,
2013-04-15 20:38:00,71.2,70.3,29.95,SE,126,7.0,12.0,97,0.00,,,0.00,Wunderground v.1.15,2013-04-16 01:38:00,
2013-04-15 20:43:00,71.2,70.3,29.95,ESE,108,8.0,10.0,97,0.00,,,0.00,Wunderground v.1.15,2013-04-16 01:43:00,
2013-04-15 20:48:00,71.2,70.6,29.95,ESE,105,9.0,14.0,98,0.00,,,0.00,Wunderground v.1.15,2013-04-16 01:48:00,
2013-04-15 20:53:00,71.2,70.6,29.95,East,99,7.0,12.0,98,0.00,,,0.00,Wunderground v.1.15,2013-04-16 01:53:00,
2013-04-15 20:58:00,71.2,70.6,29.96,SE,136,6.0,13.0,98,0.00,,,0.00,Wunderground v.1.15,2013-04-16 01:58:00,
2013-04-15 21:03:00,71.3,70.7,29.96,ESE,122,7.0,11.0,98,0.00,,,0.00,Wunderground v.1.15,2013-04-16 02:03:00,
2013-04-15 21:08:00,71.3,70.7,29.96,ESE,121,5.0,12.0,98,0.00,,,0.00,Wunderground v.1.15,2013-04-16 02:08:00,
2013-04-15 21:13:00,71.3,70.7,29.96,SE,131,5.0,9.0,98,0.00,,,0.00,Wunderground v.1.15,2013-04-16 02:13:00,
2013-04-15 21:18:00,71.3,70.7,29.96,SE,125,6.0,11.0,98,0.00,,,0.00,Wunderground v.1.15,2013-04-16 02:18:00,
2013-04-15 21:23:00,71.3,70.7,29.97,SE,130,8.0,12.0,98,0.00,,,0.00,Wunderground v.1.15,2013-04-16 02:23:00,
2013-04-15 21:28:00,71.3,70.7,29.97,SE,142,7.0,12.0,98,0.00,,,0.00,Wunderground v.1.15,2013-04-16 02:28:00,
2013-04-15 21:33:00,71.3,70.7,29.97,ESE,115,5.0,11.0,98,0.00,,,0.00,Wunderground v.1.15,2013-04-16 02:33:00,
2013-04-15 21:38:00,71.3,70.7,29.97,SE,142,5.0,11.0,98,0.00,,,0.00,Wunderground v.1.15,2013-04-16 02:38:00,
2013-04-15 21:43:00,71.3,70.7,29.98,SE,146,6.0,10.0,98,0.00,,,0.00,Wunderground v.1.15,2013-04-16 02:43:00,
2013-04-15 21:48:00,71.2,70.6,29.97,SE,132,3.0,11.0,98,0.00,,,0.00,Wunderground v.1.15,2013-04-16 02:48:00,
2013-04-15 21:53:00,71.2,70.9,29.98,SE,126,5.0,11.0,99,0.00,,,0.00,Wunderground v.1.15,2013-04-16 02:53:00,
2013-04-15 21:58:00,71.2,70.9,29.98,ESE,122,5.0,11.0,99,0.00,,,0.00,Wunderground v.1.15,2013-04-16 02:58:00,
2013-04-15 22:03:00,71.2,70.9,29.98,SE,142,6.0,10.0,99,0.00,,,0.00,Wunderground v.1.15,2013-04-16 03:03:00,
2013-04-15 22:08:00,71.2,70.9,29.98,ESE,122,7.0,12.0,99,0.00,,,0.00,Wunderground v.1.15,2013-04-16 03:08:00,
2013-04-15 22:13:00,71.2,70.9,29.98,SE,131,4.0,10.0,99,0.00,,,0.00,Wunderground v.1.15,2013-04-16 03:13:00,
2013-04-15 22:18:00,71.2,70.9,29.99,SE,127,5.0,12.0,99,0.00,,,0.00,Wunderground v.1.15,2013-04-16 03:18:00,
2013-04-15 22:23:00,71.2,70.9,29.99,ESE,123,5.0,10.0,99,0.00,,,0.00,Wunderground v.1.15,2013-04-16 03:23:00,
2013-04-15 22:28:00,71.1,70.8,29.99,SE,126,10.0,11.0,99,0.00,,,0.00,Wunderground v.1.15,2013-04-16 03:28:00,
2013-04-15 22:33:00,71.2,70.9,29.99,SE,132,4.0,11.0,99,0.00,,,0.00,Wunderground v.1.15,2013-04-16 03:33:00,
2013-04-15 22:38:00,71.2,70.9,29.99,SE,127,4.0,11.0,99,0.00,,,0.00,Wunderground v.1.15,2013-04-16 03:38:00,
2013-04-15 22:43:00,71.2,70.9,29.99,ESE,120,4.0,9.0,99,0.00,,,0.00,Wunderground v.1.15,2013-04-16 03:43:00,
2013-04-15 22:48:00,71.2,70.9,29.99,SE,142,5.0,9.0,99,0.00,,,0.00,Wunderground v.1.15,2013-04-16 03:48:00,
2013-04-15 22:53:00,71.2,70.9,30.00,ESE,108,7.0,8.0,99,0.00,,,0.00,Wunderground v.1.15,2013-04-16 03:53:00,
2013-04-15 22:58:00,71.2,70.9,29.99,SSE,158,5.0,9.0,99,0.00,,,0.00,Wunderground v.1.15,2013-04-16 03:58:00,
2013-04-15 23:00:00,71.2,70.9,29.99,SE,136,5.0,6.0,99,0.00,,,0.00,Wunderground v.1.15,2013-04-16 04:00:00,
2013-04-15 23:05:00,71.2,70.9,29.99,SE,135,5.0,11.0,99,0.00,,,0.00,Wunderground v.1.15,2013-04-16 04:05:00,
2013-04-15 23:10:00,71.2,70.9,29.99,SE,136,4.0,6.0,99,0.00,,,0.00,Wunderground v.1.15,2013-04-16 04:10:00,
2013-04-15 23:15:00,71.2,70.9,29.99,SE,146,3.0,11.0,99,0.00,,,0.00,Wunderground v.1.15,2013-04-16 04:15:00,
2013-04-15 23:20:00,71.1,70.8,29.99,SE,135,3.0,7.0,99,0.00,,,0.00,Wunderground v.1.15,2013-04-16 04:20:00,
2013-04-15 23:25:00,71.1,70.8,29.99,SE,134,4.0,7.0,99,0.00,,,0.00,Wunderground v.1.15,2013-04-16 04:25:00,
2013-04-15 23:30:00,71.1,70.8,29.99,ESE,119,3.0,8.0,99,0.00,,,0.00,Wunderground v.1.15,2013-04-16 04:30:00,
2013-04-15 23:35:00,71.1,70.8,29.99,SSE,148,2.0,8.0,99,0.00,,,0.00,Wunderground v.1.15,2013-04-16 04:35:00,
2013-04-15 23:40:00,71.1,70.8,30.00,ESE,120,7.0,7.0,99,0.00,,,0.00,Wunderground v.1.15,2013-04-16 04:40:00,
2013-04-15 23:46:00,71.1,70.8,29.99,SE,139,3.0,9.0,99,0.00,,,0.00,Wunderground v.1.15,2013-04-16 04:46:00,
2013-04-15 23:51:00,71.1,70.8,29.99,SE,134,3.0,5.0,99,0.00,,,0.00,Wunderground v.1.15,2013-04-16 04:51:00,
2013-04-15 23:56:00,71.1,70.8,29.99,ESE,108,4.0,7.0,99,0.00,,,0.00,Wunderground v.1.15,2013-04-16 04:56:00,